Time,TemperatureF,DewpointF,PressureIn,WindDirection,WindDirectionDegrees,WindSpeedMPH,WindSpeedGustMPH,Humidity,HourlyPrecipIn,Conditions,Clouds,dailyrainin,SoftwareType,DateUTC
2013-10-22 00:03:00,55.2,46.7,29.93,West,267,0.0,0.0,73,0.00,CLR,,0.00,WeatherDisplay:10.37,2013-10-22 07:03:00,
2013-10-22 00:08:00,55.1,47.0,29.93,West,267,0.0,0.0,74,0.00,CLR,,0.00,WeatherDisplay:10.37,2013-10-22 07:08:00,
2013-10-22 00:13:00,54.9,46.8,29.93,West,267,0.0,0.0,74,0.00,CLR,,0.00,WeatherDisplay:10.37,2013-10-22 07:13:00,
2013-10-22 00:18:00,54.7,46.6,29.93,West,267,0.0,0.0,74,0.00,CLR,,0.00,WeatherDisplay:10.37,2013-10-22 07:18:00,
2013-10-22 00:23:00,54.7,46.6,29.93,West,267,0.0,0.0,74,0.00,CLR,,0.00,WeatherDisplay:10.37,2013-10-22 07:23:00,
2013-10-22 00:28:00,54.7,46.6,29.93,West,267,0.0,0.0,74,0.00,CLR,,0.00,WeatherDisplay:10.37,2013-10-22 07:28:00,
2013-10-22 00:33:00,54.6,46.5,29.93,West,267,0.0,0.0,74,0.00,CLR,,0.00,WeatherDisplay:10.37,2013-10-22 07:33:00,
2013-10-22 00:38:00,54.4,46.3,29.93,West,267,0.0,0.0,74,0.00,CLR,,0.00,WeatherDisplay:10.37,2013-10-22 07:38:00,
2013-10-22 00:43:00,54.3,46.2,29.93,West,267,0.0,0.0,74,0.00,CLR,,0.00,WeatherDisplay:10.37,2013-10-22 07:43:00,
2013-10-22 00:48:00,54.2,46.4,29.93,West,267,0.0,0.0,75,0.00,CLR,,0.00,WeatherDisplay:10.37,2013-10-22 07:48:00,
2013-10-22 00:53:00,54.0,46.3,29.93,West,267,0.0,0.0,75,0.00,CLR,,0.00,WeatherDisplay:10.37,2013-10-22 07:53:00,
2013-10-22 00:58:00,53.8,46.1,29.93,West,267,0.0,0.0,75,0.00,CLR,,0.00,WeatherDisplay:10.37,2013-10-22 07:58:00,
2013-10-22 01:03:00,53.7,46.0,29.94,West,267,0.0,0.0,75,0.00,CLR,,0.00,WeatherDisplay:10.37,2013-10-22 08:03:00,
2013-10-22 01:08:00,53.5,46.1,29.93,West,267,0.0,0.0,76,0.00,CLR,,0.00,WeatherDisplay:10.37,2013-10-22 08:08:00,
2013-10-22 01:13:00,53.4,46.0,29.93,West,267,0.0,0.0,76,0.00,CLR,,0.00,WeatherDisplay:10.37,2013-10-22 08:13:00,
2013-10-22 01:18:00,53.4,46.4,29.93,West,267,0.0,0.0,77,0.00,CLR,,0.00,WeatherDisplay:10.37,2013-10-22 08:18:00,
2013-10-22 01:23:00,53.3,45.9,29.93,West,267,0.0,0.0,76,0.00,CLR,,0.00,WeatherDisplay:10.37,2013-10-22 08:23:00,
2013-10-22 01:28:00,53.2,45.8,29.94,West,267,0.0,0.0,76,0.00,CLR,,0.00,WeatherDisplay:10.37,2013-10-22 08:28:00,
2013-10-22 01:33:00,53.2,45.8,29.94,West,267,0.0,0.0,76,0.00,CLR,,0.00,WeatherDisplay:10.37,2013-10-22 08:33:00,
2013-10-22 01:38:00,53.2,45.8,29.94,West,267,0.0,0.0,76,0.00,CLR,,0.00,WeatherDisplay:10.37,2013-10-22 08:38:00,
2013-10-22 01:43:00,53.2,46.2,29.94,West,267,0.0,0.0,77,0.00,CLR,,0.00,WeatherDisplay:10.37,2013-10-22 08:43:00,
2013-10-22 01:48:00,53.1,45.7,29.94,West,267,0.0,0.0,76,0.00,CLR,,0.00,WeatherDisplay:10.37,2013-10-22 08:48:00,
2013-10-22 01:53:00,53.0,46.0,29.94,West,267,0.0,0.0,77,0.00,CLR,,0.00,WeatherDisplay:10.37,2013-10-22 08:53:00,
2013-10-22 01:58:00,52.9,45.9,29.94,West,267,0.0,0.0,77,0.00,CLR,,0.00,WeatherDisplay:10.37,2013-10-22 08:58:00,
2013-10-22 02:03:00,52.8,45.8,29.94,West,267,0.0,0.0,77,0.00,CLR,,0.00,WeatherDisplay:10.37,2013-10-22 09:03:00,
2013-10-22 02:08:00,52.6,45.2,29.94,West,268,0.0,0.0,76,0.00,CLR,,0.00,WeatherDisplay:10.37,2013-10-22 09:08:00,
2013-10-22 02:13:00,52.6,45.6,29.93,West,267,0.0,0.0,77,0.00,CLR,,0.00,WeatherDisplay:10.37,2013-10-22 09:13:00,
2013-10-22 02:18:00,52.5,45.5,29.93,West,267,0.0,0.0,77,0.00,CLR,,0.00,WeatherDisplay:10.37,2013-10-22 09:18:00,
2013-10-22 02:23:00,52.4,45.4,29.93,West,267,0.0,0.0,77,0.00,CLR,,0.00,WeatherDisplay:10.37,2013-10-22 09:23:00,
2013-10-22 02:28:00,52.3,45.3,29.93,West,267,0.0,0.0,77,0.00,CLR,,0.00,WeatherDisplay:10.37,2013-10-22 09:28:00,
2013-10-22 02:33:00,52.1,45.1,29.93,West,267,0.0,0.0,77,0.00,CLR,,0.00,WeatherDisplay:10.37,2013-10-22 09:33:00,
2013-10-22 02:38:00,52.2,45.2,29.93,West,267,0.0,0.0,77,0.00,CLR,,0.00,WeatherDisplay:10.37,2013-10-22 09:38:00,
2013-10-22 02:43:00,52.3,45.3,29.93,West,267,0.0,0.0,77,0.00,CLR,,0.00,WeatherDisplay:10.37,2013-10-22 09:43:00,
2013-10-22 02:48:00,52.3,45.3,29.93,West,267,0.0,0.0,77,0.00,CLR,,0.00,WeatherDisplay:10.37,2013-10-22 09:48:00,
2013-10-22 02:53:00,52.4,45.4,29.93,West,267,0.0,0.0,77,0.00,CLR,,0.00,WeatherDisplay:10.37,2013-10-22 09:53:00,
2013-10-22 02:58:00,52.3,45.3,29.93,West,267,0.0,0.0,77,0.00,CLR,,0.00,WeatherDisplay:10.37,2013-10-22 09:58:00,
2013-10-22 03:03:00,52.2,45.2,29.93,West,267,0.0,0.0,77,0.00,CLR,,0.00,WeatherDisplay:10.37,2013-10-22 10:03:00,
2013-10-22 03:08:00,52.2,45.2,29.93,West,267,0.0,0.0,77,0.00,CLR,,0.00,WeatherDisplay:10.37,2013-10-22 10:08:00,
2013-10-22 03:13:00,52.2,45.5,29.93,West,267,0.0,0.0,78,0.00,CLR,,0.00,WeatherDisplay:10.37,2013-10-22 10:13:00,
2013-10-22 03:18:00,52.1,45.4,29.93,West,267,0.0,0.0,78,0.00,CLR,,0.00,WeatherDisplay:10.37,2013-10-22 10:18:00,
2013-10-22 03:23:00,51.9,45.3,29.93,West,267,0.0,0.0,78,0.00,CLR,,0.00,WeatherDisplay:10.37,2013-10-22 10:23:00,
2013-10-22 03:28:00,51.8,44.8,29.93,West,267,0.0,0.0,77,0.00,CLR,,0.00,WeatherDisplay:10.37,2013-10-22 10:28:00,
2013-10-22 03:33:00,51.6,45.0,29.93,West,267,0.0,0.0,78,0.00,CLR,,0.00,WeatherDisplay:10.37,2013-10-22 10:33:00,
2013-10-22 03:38:00,51.4,45.1,29.93,West,267,0.0,0.0,79,0.00,CLR,,0.00,WeatherDisplay:10.37,2013-10-22 10:38:00,
2013-10-22 03:43:00,51.2,44.9,29.93,West,267,0.0,0.0,79,0.00,CLR,,0.00,WeatherDisplay:10.37,2013-10-22 10:43:00,
2013-10-22 03:48:00,51.2,45.2,29.93,West,267,0.0,0.0,80,0.00,CLR,,0.00,WeatherDisplay:10.37,2013-10-22 10:48:00,
2013-10-22 03:53:00,51.0,44.7,29.93,West,267,0.0,0.0,79,0.00,CLR,,0.00,WeatherDisplay:10.37,2013-10-22 10:53:00,
2013-10-22 03:58:00,50.8,44.5,29.93,West,267,0.0,0.0,79,0.00,CLR,,0.00,WeatherDisplay:10.37,2013-10-22 10:58:00,
2013-10-22 04:03:00,50.7,44.4,29.93,West,267,0.0,0.0,79,0.00,CLR,,0.00,WeatherDisplay:10.37,2013-10-22 11:03:00,
2013-10-22 04:08:00,50.6,44.3,29.93,West,267,0.0,0.0,79,0.00,CLR,,0.00,WeatherDisplay:10.37,2013-10-22 11:08:00,
2013-10-22 04:13:00,50.5,44.6,29.93,West,267,0.0,0.0,80,0.00,CLR,,0.00,WeatherDisplay:10.37,2013-10-22 11:13:00,
2013-10-22 04:18:00,50.3,44.0,29.93,West,267,0.0,0.0,79,0.00,CLR,,0.00,WeatherDisplay:10.37,2013-10-22 11:18:00,
2013-10-22 04:23:00,50.1,43.8,29.93,West,267,0.0,0.0,79,0.00,CLR,,0.00,WeatherDisplay:10.37,2013-10-22 11:23:00,
2013-10-22 04:28:00,50.1,44.2,29.93,West,267,0.0,0.0,80,0.00,CLR,,0.00,WeatherDisplay:10.37,2013-10-22 11:28:00,
2013-10-22 04:33:00,50.0,44.1,29.93,West,267,0.0,0.0,80,0.00,CLR,,0.00,WeatherDisplay:10.37,2013-10-22 11:33:00,
2013-10-22 04:38:00,50.1,44.2,29.93,West,267,0.0,0.0,80,0.00,CLR,,0.00,WeatherDisplay:10.37,2013-10-22 11:38:00,
2013-10-22 04:43:00,49.9,44.0,29.94,West,267,0.0,0.0,80,0.00,CLR,,0.00,WeatherDisplay:10.37,2013-10-22 11:43:00,
2013-10-22 04:48:00,49.7,43.5,29.94,West,267,0.0,0.0,79,0.00,CLR,,0.00,WeatherDisplay:10.37,2013-10-22 11:48:00,
2013-10-22 04:53:00,49.6,42.7,29.94,West,267,0.0,0.0,77,0.00,CLR,,0.00,WeatherDisplay:10.37,2013-10-22 11:53:00,
2013-10-22 04:58:00,49.7,43.1,29.94,West,267,0.0,0.0,78,0.00,CLR,,0.00,WeatherDisplay:10.37,2013-10-22 11:58:00,
2013-10-22 05:03:00,49.6,42.7,29.94,West,267,0.0,0.0,77,0.00,CLR,,0.00,WeatherDisplay:10.37,2013-10-22 12:03:00,
2013-10-22 05:08:00,49.5,42.2,29.94,West,267,0.0,0.0,76,0.00,CLR,,0.00,WeatherDisplay:10.37,2013-10-22 12:08:00,
2013-10-22 05:13:00,49.4,42.5,29.94,West,267,0.0,0.0,77,0.00,CLR,,0.00,WeatherDisplay:10.37,2013-10-22 12:13:00,
2013-10-22 05:18:00,49.4,42.5,29.94,West,267,0.0,0.0,77,0.00,CLR,,0.00,WeatherDisplay:10.37,2013-10-22 12:18:00,
2013-10-22 05:23:00,49.3,42.1,29.94,West,267,0.0,0.0,76,0.00,CLR,,0.00,WeatherDisplay:10.37,2013-10-22 12:23:00,
2013-10-22 05:28:00,49.2,41.6,29.94,West,267,0.0,0.0,75,0.00,CLR,,0.00,WeatherDisplay:10.37,2013-10-22 12:28:00,
2013-10-22 05:33:00,49.1,41.2,29.94,West,268,0.0,0.0,74,0.00,CLR,,0.00,WeatherDisplay:10.37,2013-10-22 12:33:00,
2013-10-22 05:38:00,49.0,41.4,29.94,West,267,0.0,0.0,75,0.00,CLR,,0.00,WeatherDisplay:10.37,2013-10-22 12:38:00,
2013-10-22 05:43:00,49.0,41.4,29.94,West,267,0.0,0.0,75,0.00,CLR,,0.00,WeatherDisplay:10.37,2013-10-22 12:43:00,
2013-10-22 05:48:00,48.9,41.7,29.94,West,267,0.0,0.0,76,0.00,CLR,,0.00,WeatherDisplay:10.37,2013-10-22 12:48:00,
2013-10-22 05:53:00,48.9,42.0,29.94,West,267,0.0,0.0,77,0.00,CLR,,0.00,WeatherDisplay:10.37,2013-10-22 12:53:00,
2013-10-22 05:58:00,48.9,42.3,29.95,West,267,0.0,0.0,78,0.00,CLR,,0.00,WeatherDisplay:10.37,2013-10-22 12:58:00,
2013-10-22 06:03:00,48.8,41.9,29.95,West,267,0.0,0.0,77,0.00,CLR,,0.00,WeatherDisplay:10.37,2013-10-22 13:03:00,
2013-10-22 06:08:00,48.8,41.9,29.95,West,267,0.0,0.0,77,0.00,CLR,,0.00,WeatherDisplay:10.37,2013-10-22 13:08:00,
2013-10-22 06:13:00,48.7,42.1,29.95,West,267,0.0,0.0,78,0.00,CLR,,0.00,WeatherDisplay:10.37,2013-10-22 13:13:00,
2013-10-22 06:18:00,48.6,42.0,29.95,West,267,0.0,0.0,78,0.00,CLR,,0.00,WeatherDisplay:10.37,2013-10-22 13:18:00,
2013-10-22 06:23:00,48.4,41.9,29.95,West,267,0.0,0.0,78,0.00,CLR,,0.00,WeatherDisplay:10.37,2013-10-22 13:23:00,
2013-10-22 06:28:00,48.3,41.8,29.95,West,267,0.0,0.0,78,0.00,CLR,,0.00,WeatherDisplay:10.37,2013-10-22 13:28:00,
2013-10-22 06:33:00,48.2,42.0,29.95,West,267,0.0,0.0,79,0.00,CLR,,0.00,WeatherDisplay:10.37,2013-10-22 13:33:00,
2013-10-22 06:38:00,48.1,41.9,29.95,West,267,0.0,0.0,79,0.00,CLR,,0.00,WeatherDisplay:10.37,2013-10-22 13:38:00,
2013-10-22 06:43:00,47.9,41.4,29.95,West,267,0.0,0.0,78,0.00,CLR,,0.00,WeatherDisplay:10.37,2013-10-22 13:43:00,
2013-10-22 06:48:00,47.9,41.7,29.95,West,267,0.0,0.0,79,0.00,CLR,,0.00,WeatherDisplay:10.37,2013-10-22 13:48:00,
2013-10-22 06:53:00,47.8,41.6,29.96,West,267,0.0,0.0,79,0.00,CLR,,0.00,WeatherDisplay:10.37,2013-10-22 13:53:00,
2013-10-22 06:58:00,47.8,41.6,29.96,West,267,0.0,0.0,79,0.00,CLR,,0.00,WeatherDisplay:10.37,2013-10-22 13:58:00,
2013-10-22 07:03:00,47.9,42.0,29.96,West,267,0.0,0.0,80,0.00,CLR,,0.00,WeatherDisplay:10.37,2013-10-22 14:03:00,
2013-10-22 07:08:00,47.8,41.6,29.96,West,267,0.0,0.0,79,0.00,CLR,,0.00,WeatherDisplay:10.37,2013-10-22 14:08:00,
2013-10-22 07:13:00,48.0,42.1,29.96,West,267,0.0,0.0,80,0.00,CLR,,0.00,WeatherDisplay:10.37,2013-10-22 14:13:00,
2013-10-22 07:18:00,47.9,42.0,29.96,West,267,0.0,0.0,80,0.00,CLR,,0.00,WeatherDisplay:10.37,2013-10-22 14:18:00,
2013-10-22 07:23:00,48.0,41.8,29.96,West,267,0.0,0.0,79,0.00,CLR,,0.00,WeatherDisplay:10.37,2013-10-22 14:23:00,
2013-10-22 07:28:00,48.4,41.9,29.96,West,267,0.0,0.0,78,0.00,CLR,,0.00,WeatherDisplay:10.37,2013-10-22 14:28:00,
2013-10-22 07:33:00,48.6,42.0,29.96,West,267,0.0,0.0,78,0.00,CLR,,0.00,WeatherDisplay:10.37,2013-10-22 14:33:00,
2013-10-22 07:38:00,48.7,41.8,29.96,West,267,0.0,0.0,77,0.00,CLR,,0.00,WeatherDisplay:10.37,2013-10-22 14:38:00,
2013-10-22 07:43:00,48.7,42.1,29.96,West,267,0.0,0.0,78,0.00,CLR,,0.00,WeatherDisplay:10.37,2013-10-22 14:43:00,
2013-10-22 07:48:00,48.7,42.1,29.96,West,267,0.0,0.0,78,0.00,CLR,,0.00,WeatherDisplay:10.37,2013-10-22 14:48:00,
2013-10-22 07:53:00,48.7,42.1,29.97,West,267,0.0,0.0,78,0.00,CLR,,0.00,WeatherDisplay:10.37,2013-10-22 14:53:00,
2013-10-22 07:58:00,48.8,42.6,29.97,West,267,0.0,0.0,79,0.00,CLR,,0.00,WeatherDisplay:10.37,2013-10-22 14:58:00,
2013-10-22 08:03:00,49.1,43.5,29.97,West,267,0.0,0.0,81,0.00,CLR,,0.00,WeatherDisplay:10.37,2013-10-22 15:03:00,
2013-10-22 08:08:00,49.4,43.5,29.97,West,267,0.0,0.0,80,0.00,CLR,,0.00,WeatherDisplay:10.37,2013-10-22 15:08:00,
2013-10-22 08:13:00,49.9,44.0,29.97,West,267,0.0,0.0,80,0.00,CLR,,0.00,WeatherDisplay:10.37,2013-10-22 15:13:00,
2013-10-22 08:18:00,50.3,44.0,29.98,West,267,0.0,0.0,79,0.00,CLR,,0.00,WeatherDisplay:10.37,2013-10-22 15:18:00,
2013-10-22 08:23:00,50.5,43.9,29.97,West,267,0.0,0.0,78,0.00,CLR,,0.00,WeatherDisplay:10.37,2013-10-22 15:23:00,
2013-10-22 08:28:00,51.2,44.2,29.97,West,267,0.0,0.0,77,0.00,CLR,,0.00,WeatherDisplay:10.37,2013-10-22 15:28:00,
2013-10-22 08:33:00,51.7,44.4,29.97,West,267,0.0,0.0,76,0.00,CLR,,0.00,WeatherDisplay:10.37,2013-10-22 15:33:00,
2013-10-22 08:38:00,52.0,44.7,29.98,West,267,0.0,0.0,76,0.00,CLR,,0.00,WeatherDisplay:10.37,2013-10-22 15:38:00,
2013-10-22 08:43:00,52.3,43.5,29.98,West,267,0.0,0.0,72,0.00,CLR,,0.00,WeatherDisplay:10.37,2013-10-22 15:43:00,
2013-10-22 08:48:00,52.8,42.9,29.98,West,267,0.0,0.0,69,0.00,CLR,,0.00,WeatherDisplay:10.37,2013-10-22 15:48:00,
2013-10-22 08:53:00,53.7,43.8,29.98,West,267,0.0,0.0,69,0.00,CLR,,0.00,WeatherDisplay:10.37,2013-10-22 15:53:00,
2013-10-22 08:58:00,54.4,43.3,29.98,West,267,0.0,0.0,66,0.00,CLR,,0.00,WeatherDisplay:10.37,2013-10-22 15:58:00,
2013-10-22 09:03:00,55.3,44.1,29.98,West,267,0.0,0.0,66,0.00,CLR,,0.00,WeatherDisplay:10.37,2013-10-22 16:03:00,
2013-10-22 09:08:00,56.0,43.6,29.98,West,267,0.0,0.0,63,0.00,CLR,,0.00,WeatherDisplay:10.37,2013-10-22 16:08:00,
2013-10-22 09:13:00,57.0,44.5,29.98,West,267,0.0,0.0,63,0.00,CLR,,0.00,WeatherDisplay:10.37,2013-10-22 16:13:00,
2013-10-22 09:18:00,57.9,42.8,29.98,West,267,0.0,0.0,57,0.00,CLR,,0.00,WeatherDisplay:10.37,2013-10-22 16:18:00,
2013-10-22 09:23:00,59.1,42.9,29.98,West,267,0.0,0.0,55,0.00,CLR,,0.00,WeatherDisplay:10.37,2013-10-22 16:23:00,
2013-10-22 09:28:00,59.8,43.1,29.98,West,267,0.0,0.0,54,0.00,CLR,,0.00,WeatherDisplay:10.37,2013-10-22 16:28:00,
2013-10-22 09:33:00,60.8,42.5,29.99,West,267,0.0,0.0,51,0.00,CLR,,0.00,WeatherDisplay:10.37,2013-10-22 16:33:00,
2013-10-22 09:38:00,61.6,43.3,29.98,West,267,0.0,0.0,51,0.00,CLR,,0.00,WeatherDisplay:10.37,2013-10-22 16:38:00,
2013-10-22 09:43:00,62.5,43.6,29.98,West,267,0.0,0.0,50,0.00,CLR,,0.00,WeatherDisplay:10.37,2013-10-22 16:43:00,
2013-10-22 09:48:00,62.9,42.4,29.98,West,267,0.0,0.0,47,0.00,CLR,,0.00,WeatherDisplay:10.37,2013-10-22 16:48:00,
2013-10-22 09:53:00,63.6,42.4,29.98,WSW,256,1.2,1.2,46,0.00,CLR,,0.00,WeatherDisplay:10.37,2013-10-22 16:53:00,
2013-10-22 09:58:00,64.5,43.3,29.98,WSW,256,0.0,0.0,46,0.00,CLR,,0.00,WeatherDisplay:10.37,2013-10-22 16:58:00,
2013-10-22 10:03:00,65.2,42.7,29.98,WSW,256,0.0,0.0,44,0.00,CLR,,0.00,WeatherDisplay:10.37,2013-10-22 17:03:00,
2013-10-22 10:08:00,65.8,43.3,29.98,WSW,256,0.0,0.0,44,0.00,CLR,,0.00,WeatherDisplay:10.37,2013-10-22 17:08:00,
2013-10-22 10:13:00,66.0,44.0,29.98,WSW,256,0.0,0.0,45,0.00,CLR,,0.00,WeatherDisplay:10.37,2013-10-22 17:13:00,
2013-10-22 10:18:00,66.6,44.0,29.97,SSW,204,0.0,0.0,44,0.00,CLR,,0.00,WeatherDisplay:10.37,2013-10-22 17:18:00,
2013-10-22 10:23:00,67.3,45.2,29.97,SW,228,0.0,0.0,45,0.00,CLR,,0.00,WeatherDisplay:10.37,2013-10-22 17:23:00,
2013-10-22 10:28:00,67.8,44.5,29.97,SW,221,1.2,0.0,43,0.00,CLR,,0.00,WeatherDisplay:10.37,2013-10-22 17:28:00,
2013-10-22 10:33:00,68.2,43.6,29.97,WSW,249,0.0,0.0,41,0.00,CLR,,0.00,WeatherDisplay:10.37,2013-10-22 17:33:00,
2013-10-22 10:38:00,68.7,44.0,29.97,WSW,249,0.0,0.0,41,0.00,CLR,,0.00,WeatherDisplay:10.37,2013-10-22 17:38:00,
2013-10-22 10:43:00,69.2,44.5,29.97,WSW,255,0.0,0.0,41,0.00,CLR,,0.00,WeatherDisplay:10.37,2013-10-22 17:43:00,
2013-10-22 10:48:00,69.7,44.3,29.96,WSW,253,0.0,0.0,40,0.00,CLR,,0.00,WeatherDisplay:10.37,2013-10-22 17:48:00,
2013-10-22 10:53:00,70.0,45.2,29.96,West,259,1.2,0.0,41,0.00,CLR,,0.00,WeatherDisplay:10.37,2013-10-22 17:53:00,
2013-10-22 10:58:00,70.4,44.9,29.96,West,259,0.0,0.0,40,0.00,CLR,,0.00,WeatherDisplay:10.37,2013-10-22 17:58:00,
2013-10-22 11:03:00,70.7,44.5,29.96,WSW,256,0.0,0.0,39,0.00,CLR,,0.00,WeatherDisplay:10.37,2013-10-22 18:03:00,
2013-10-22 11:08:00,71.1,44.9,29.96,West,260,1.2,1.2,39,0.00,CLR,,0.00,WeatherDisplay:10.37,2013-10-22 18:08:00,
2013-10-22 11:13:00,71.5,45.2,29.96,WSW,258,0.0,0.0,39,0.00,CLR,,0.00,WeatherDisplay:10.37,2013-10-22 18:13:00,
2013-10-22 11:18:00,72.0,45.0,29.96,WSW,256,1.2,1.2,38,0.00,CLR,,0.00,WeatherDisplay:10.37,2013-10-22 18:18:00,
2013-10-22 11:23:00,72.4,45.4,29.95,WSW,256,0.0,0.0,38,0.00,CLR,,0.00,WeatherDisplay:10.37,2013-10-22 18:23:00,
2013-10-22 11:28:00,72.8,45.7,29.95,SW,215,1.2,0.0,38,0.00,CLR,,0.00,WeatherDisplay:10.37,2013-10-22 18:28:00,
2013-10-22 11:33:00,73.2,46.1,29.95,West,269,1.2,0.0,38,0.00,CLR,,0.00,WeatherDisplay:10.37,2013-10-22 18:33:00,
2013-10-22 11:38:00,73.6,46.4,29.95,West,266,1.2,1.2,38,0.00,CLR,,0.00,WeatherDisplay:10.37,2013-10-22 18:38:00,
2013-10-22 11:43:00,74.2,46.2,29.95,North,353,1.0,1.0,37,0.00,CLR,,0.00,WeatherDisplay:10.37,2013-10-22 18:43:00,
2013-10-22 11:48:00,74.6,46.6,29.95,SSW,212,1.2,1.2,37,0.00,CLR,,0.00,WeatherDisplay:10.37,2013-10-22 18:48:00,
2013-10-22 11:53:00,75.1,46.3,29.95,SW,215,0.0,0.0,36,0.00,CLR,,0.00,WeatherDisplay:10.37,2013-10-22 18:53:00,
2013-10-22 11:58:00,75.3,46.5,29.94,South,176,1.2,1.2,36,0.00,CLR,,0.00,WeatherDisplay:10.37,2013-10-22 18:58:00,
2013-10-22 12:03:00,75.5,46.7,29.94,South,176,0.0,0.0,36,0.00,CLR,,0.00,WeatherDisplay:10.37,2013-10-22 19:03:00,
2013-10-22 12:08:00,76.0,46.4,29.94,South,183,1.2,1.2,35,0.00,CLR,,0.00,WeatherDisplay:10.37,2013-10-22 19:08:00,
2013-10-22 12:13:00,76.5,47.6,29.94,NNW,335,1.2,0.0,36,0.00,CLR,,0.00,WeatherDisplay:10.37,2013-10-22 19:13:00,
2013-10-22 12:18:00,76.8,47.1,29.94,WSW,256,1.2,1.2,35,0.00,CLR,,0.00,WeatherDisplay:10.37,2013-10-22 19:18:00,
2013-10-22 12:23:00,77.1,47.3,29.93,NW,314,1.2,0.0,35,0.00,CLR,,0.00,WeatherDisplay:10.37,2013-10-22 19:23:00,
2013-10-22 12:28:00,77.3,46.7,29.93,North,359,1.2,1.2,34,0.00,CLR,,0.00,WeatherDisplay:10.37,2013-10-22 19:28:00,
2013-10-22 12:33:00,77.8,47.2,29.93,WSW,238,1.2,0.0,34,0.00,CLR,,0.00,WeatherDisplay:10.37,2013-10-22 19:33:00,
2013-10-22 12:38:00,78.0,47.4,29.93,NE,39,1.2,1.2,34,0.00,CLR,,0.00,WeatherDisplay:10.37,2013-10-22 19:38:00,
2013-10-22 12:43:00,78.3,47.6,29.93,North,11,1.2,1.2,34,0.00,CLR,,0.00,WeatherDisplay:10.37,2013-10-22 19:43:00,
2013-10-22 12:48:00,78.9,48.9,29.92,SW,225,1.2,1.2,35,0.00,CLR,,0.00,WeatherDisplay:10.37,2013-10-22 19:48:00,
2013-10-22 12:53:00,79.3,48.5,29.92,WSW,246,1.2,1.2,34,0.00,CLR,,0.00,WeatherDisplay:10.37,2013-10-22 19:53:00,
2013-10-22 12:58:00,80.0,48.3,29.92,WNW,300,3.5,3.5,33,0.00,CLR,,0.00,WeatherDisplay:10.37,2013-10-22 19:58:00,
2013-10-22 13:03:00,80.4,48.7,29.92,NW,315,2.3,0.0,33,0.00,CLR,,0.00,WeatherDisplay:10.37,2013-10-22 20:03:00,
2013-10-22 13:08:00,81.1,48.4,29.91,West,260,1.2,1.2,32,0.00,CLR,,0.00,WeatherDisplay:10.37,2013-10-22 20:08:00,
2013-10-22 13:13:00,81.5,44.3,29.91,WNW,300,3.5,3.5,27,0.00,CLR,,0.00,WeatherDisplay:10.37,2013-10-22 20:13:00,
2013-10-22 13:18:00,81.7,45.4,29.91,North,358,2.3,2.3,28,0.00,CLR,,0.00,WeatherDisplay:10.37,2013-10-22 20:18:00,
2013-10-22 13:23:00,81.8,46.4,29.91,West,263,1.2,1.2,29,0.00,CLR,,0.00,WeatherDisplay:10.37,2013-10-22 20:23:00,
2013-10-22 13:28:00,81.7,46.3,29.90,WSW,243,1.2,1.2,29,0.00,CLR,,0.00,WeatherDisplay:10.37,2013-10-22 20:28:00,
2013-10-22 13:33:00,82.0,46.6,29.90,WSW,258,1.2,1.2,29,0.00,CLR,,0.00,WeatherDisplay:10.37,2013-10-22 20:33:00,
2013-10-22 13:38:00,82.2,46.8,29.90,NNW,328,3.5,3.5,29,0.00,CLR,,0.00,WeatherDisplay:10.37,2013-10-22 20:38:00,
2013-10-22 13:43:00,82.3,47.8,29.90,WSW,249,2.0,2.0,30,0.00,CLR,,0.00,WeatherDisplay:10.37,2013-10-22 20:43:00,
2013-10-22 13:48:00,82.5,48.8,29.89,NW,322,3.5,3.5,31,0.00,CLR,,0.00,WeatherDisplay:10.37,2013-10-22 20:48:00,
2013-10-22 13:53:00,82.4,46.9,29.89,NNW,345,2.0,2.0,29,0.00,CLR,,0.00,WeatherDisplay:10.37,2013-10-22 20:53:00,
2013-10-22 13:58:00,82.2,47.7,29.89,West,277,3.5,3.5,30,0.00,CLR,,0.00,WeatherDisplay:10.37,2013-10-22 20:58:00,
2013-10-22 14:03:00,82.2,49.4,29.89,South,191,3.5,3.5,32,0.00,CLR,,0.00,WeatherDisplay:10.37,2013-10-22 21:03:00,
2013-10-22 14:08:00,82.6,48.9,29.89,WNW,301,3.5,3.5,31,0.00,CLR,,0.00,WeatherDisplay:10.37,2013-10-22 21:08:00,
2013-10-22 14:13:00,82.9,49.2,29.89,North,358,2.0,2.0,31,0.00,CLR,,0.00,WeatherDisplay:10.37,2013-10-22 21:13:00,
2013-10-22 14:18:00,83.0,48.4,29.88,NNE,30,4.0,4.0,30,0.00,CLR,,0.00,WeatherDisplay:10.37,2013-10-22 21:18:00,
2013-10-22 14:23:00,83.0,49.2,29.88,NNW,330,2.0,2.0,31,0.00,CLR,,0.00,WeatherDisplay:10.37,2013-10-22 21:23:00,
2013-10-22 14:28:00,83.4,48.7,29.88,WSW,255,2.3,2.3,30,0.00,CLR,,0.00,WeatherDisplay:10.37,2013-10-22 21:28:00,
2013-10-22 14:33:00,83.5,48.8,29.88,WNW,296,2.3,2.3,30,0.00,CLR,,0.00,WeatherDisplay:10.37,2013-10-22 21:33:00,
2013-10-22 14:38:00,83.4,48.7,29.88,North,360,2.3,2.3,30,0.00,CLR,,0.00,WeatherDisplay:10.37,2013-10-22 21:38:00,
2013-10-22 14:43:00,83.8,48.1,29.88,NW,325,1.2,1.2,29,0.00,CLR,,0.00,WeatherDisplay:10.37,2013-10-22 21:43:00,
2013-10-22 14:48:00,83.8,49.1,29.87,NNW,345,1.2,1.2,30,0.00,CLR,,0.00,WeatherDisplay:10.37,2013-10-22 21:48:00,
2013-10-22 14:53:00,84.1,48.4,29.87,NNW,339,3.5,3.5,29,0.00,CLR,,0.00,WeatherDisplay:10.37,2013-10-22 21:53:00,
2013-10-22 14:58:00,84.3,46.7,29.87,WSW,257,2.3,2.3,27,0.00,CLR,,0.00,WeatherDisplay:10.37,2013-10-22 21:58:00,
2013-10-22 15:03:00,84.4,46.8,29.87,NNW,328,0.0,0.2,27,0.00,CLR,,0.00,WeatherDisplay:10.37,2013-10-22 22:03:00,
2013-10-22 15:08:00,84.7,47.0,29.87,NW,322,2.3,2.3,27,0.00,CLR,,0.00,WeatherDisplay:10.37,2013-10-22 22:08:00,
2013-10-22 15:13:00,84.5,47.8,29.87,NW,307,2.3,2.3,28,0.00,CLR,,0.00,WeatherDisplay:10.37,2013-10-22 22:13:00,
2013-10-22 15:18:00,84.5,46.8,29.87,North,355,3.5,3.5,27,0.00,CLR,,0.00,WeatherDisplay:10.37,2013-10-22 22:18:00,
2013-10-22 15:23:00,84.4,45.8,29.87,NNW,335,2.3,2.3,26,0.00,CLR,,0.00,WeatherDisplay:10.37,2013-10-22 22:23:00,
2013-10-22 15:28:00,84.3,46.7,29.87,North,351,3.5,3.5,27,0.00,CLR,,0.00,WeatherDisplay:10.37,2013-10-22 22:28:00,
2013-10-22 15:33:00,84.3,46.7,29.86,NW,316,3.5,3.5,27,0.00,CLR,,0.00,WeatherDisplay:10.37,2013-10-22 22:33:00,
2013-10-22 15:38:00,84.3,47.6,29.86,WSW,255,2.3,2.3,28,0.00,CLR,,0.00,WeatherDisplay:10.37,2013-10-22 22:38:00,
2013-10-22 15:43:00,84.5,47.8,29.86,NNW,348,3.5,3.5,28,0.00,CLR,,0.00,WeatherDisplay:10.37,2013-10-22 22:43:00,
2013-10-22 15:48:00,84.5,45.8,29.86,NW,319,2.3,2.3,26,0.00,CLR,,0.00,WeatherDisplay:10.37,2013-10-22 22:48:00,
2013-10-22 15:53:00,84.5,42.6,29.86,North,11,3.5,3.5,23,0.00,CLR,,0.00,WeatherDisplay:10.37,2013-10-22 22:53:00,
2013-10-22 15:58:00,84.6,44.9,29.86,NNE,30,1.2,1.2,25,0.00,CLR,,0.00,WeatherDisplay:10.37,2013-10-22 22:58:00,
2013-10-22 16:03:00,84.9,46.2,29.86,NNW,345,3.5,3.5,26,0.00,CLR,,0.00,WeatherDisplay:10.37,2013-10-22 23:03:00,
2013-10-22 16:08:00,84.7,47.0,29.86,NNW,343,1.2,1.2,27,0.00,CLR,,0.00,WeatherDisplay:10.37,2013-10-22 23:08:00,
2013-10-22 16:13:00,84.6,44.9,29.86,West,279,3.5,3.5,25,0.00,CLR,,0.00,WeatherDisplay:10.37,2013-10-22 23:13:00,
2013-10-22 16:18:00,84.5,44.8,29.85,NNW,339,1.2,1.5,25,0.00,CLR,,0.00,WeatherDisplay:10.37,2013-10-22 23:18:00,
2013-10-22 16:23:00,84.5,43.7,29.85,North,8,2.3,2.3,24,0.00,CLR,,0.00,WeatherDisplay:10.37,2013-10-22 23:23:00,
2013-10-22 16:28:00,84.4,45.8,29.85,North,356,1.0,1.0,26,0.00,CLR,,0.00,WeatherDisplay:10.37,2013-10-22 23:28:00,
2013-10-22 16:33:00,84.3,45.7,29.85,NNE,13,2.0,2.0,26,0.00,CLR,,0.00,WeatherDisplay:10.37,2013-10-22 23:33:00,
2013-10-22 16:38:00,84.0,45.4,29.85,NNE,33,1.2,1.2,26,0.00,CLR,,0.00,WeatherDisplay:10.37,2013-10-22 23:38:00,
2013-10-22 16:43:00,83.8,46.2,29.85,NW,325,2.3,2.3,27,0.00,CLR,,0.00,WeatherDisplay:10.37,2013-10-22 23:43:00,
2013-10-22 16:48:00,83.5,47.0,29.84,NNW,339,2.3,2.3,28,0.00,CLR,,0.00,WeatherDisplay:10.37,2013-10-22 23:48:00,
2013-10-22 16:53:00,83.5,46.0,29.84,NW,315,1.2,0.0,27,0.00,CLR,,0.00,WeatherDisplay:10.37,2013-10-22 23:53:00,
2013-10-22 16:58:00,83.5,45.0,29.84,NW,319,2.0,2.0,26,0.00,CLR,,0.00,WeatherDisplay:10.37,2013-10-22 23:58:00,
2013-10-22 17:03:00,83.3,44.8,29.84,NNW,340,2.3,2.3,26,0.00,CLR,,0.00,WeatherDisplay:10.37,2013-10-23 00:03:00,
2013-10-22 17:08:00,82.9,45.5,29.84,NNE,15,1.2,1.2,27,0.00,CLR,,0.00,WeatherDisplay:10.37,2013-10-23 00:08:00,
2013-10-22 17:13:00,82.5,46.1,29.84,NNW,347,1.2,1.2,28,0.00,CLR,,0.00,WeatherDisplay:10.37,2013-10-23 00:13:00,
2013-10-22 17:18:00,82.2,46.8,29.84,North,354,0.0,0.0,29,0.00,CLR,,0.00,WeatherDisplay:10.37,2013-10-23 00:18:00,
2013-10-22 17:23:00,81.8,45.5,29.84,North,354,1.2,0.0,28,0.00,CLR,,0.00,WeatherDisplay:10.37,2013-10-23 00:23:00,
2013-10-22 17:28:00,81.5,46.2,29.84,North,351,0.0,0.0,29,0.00,CLR,,0.00,WeatherDisplay:10.37,2013-10-23 00:28:00,
2013-10-22 17:33:00,81.1,44.9,29.84,North,351,0.0,0.0,28,0.00,CLR,,0.00,WeatherDisplay:10.37,2013-10-23 00:33:00,
2013-10-22 17:38:00,80.5,45.3,29.84,NW,319,1.2,1.2,29,0.00,CLR,,0.00,WeatherDisplay:10.37,2013-10-23 00:38:00,
2013-10-22 17:43:00,80.0,45.8,29.84,NW,311,1.2,1.2,30,0.00,CLR,,0.00,WeatherDisplay:10.37,2013-10-23 00:43:00,
2013-10-22 17:48:00,79.6,45.4,29.84,NW,314,0.0,0.0,30,0.00,CLR,,0.00,WeatherDisplay:10.37,2013-10-23 00:48:00,
2013-10-22 17:53:00,79.1,45.9,29.84,NW,313,0.0,0.0,31,0.00,CLR,,0.00,WeatherDisplay:10.37,2013-10-23 00:53:00,
2013-10-22 17:58:00,78.4,46.1,29.84,NW,316,0.0,0.0,32,0.00,CLR,,0.00,WeatherDisplay:10.37,2013-10-23 00:58:00,
2013-10-22 18:03:00,77.9,45.7,29.84,NW,317,0.0,0.0,32,0.00,CLR,,0.00,WeatherDisplay:10.37,2013-10-23 01:03:00,
2013-10-22 18:08:00,77.4,46.8,29.84,NW,317,0.0,0.0,34,0.00,CLR,,0.00,WeatherDisplay:10.37,2013-10-23 01:08:00,
2013-10-22 18:13:00,76.8,47.8,29.84,NW,317,0.0,0.0,36,0.00,CLR,,0.00,WeatherDisplay:10.37,2013-10-23 01:13:00,
2013-10-22 18:18:00,75.8,47.7,29.84,NW,318,0.0,0.0,37,0.00,CLR,,0.00,WeatherDisplay:10.37,2013-10-23 01:18:00,
2013-10-22 18:23:00,74.8,46.8,29.84,NW,317,0.0,0.0,37,0.00,CLR,,0.00,WeatherDisplay:10.37,2013-10-23 01:23:00,
2013-10-22 18:28:00,73.8,47.3,29.84,NW,317,0.0,0.0,39,0.00,CLR,,0.00,WeatherDisplay:10.37,2013-10-23 01:28:00,
2013-10-22 18:33:00,73.2,46.1,29.84,NW,317,0.0,0.0,38,0.00,CLR,,0.00,WeatherDisplay:10.37,2013-10-23 01:33:00,
2013-10-22 18:38:00,73.2,45.4,29.84,NW,317,0.0,0.0,37,0.00,CLR,,0.00,WeatherDisplay:10.37,2013-10-23 01:38:00,
2013-10-22 18:43:00,73.4,48.3,29.84,NW,317,0.0,0.0,41,0.00,CLR,,0.00,WeatherDisplay:10.37,2013-10-23 01:43:00,
2013-10-22 18:48:00,73.0,47.2,29.84,NW,317,0.0,0.0,40,0.00,CLR,,0.00,WeatherDisplay:10.37,2013-10-23 01:48:00,
2013-10-22 18:53:00,72.2,46.5,29.84,NW,318,0.0,0.0,40,0.00,CLR,,0.00,WeatherDisplay:10.37,2013-10-23 01:53:00,
2013-10-22 18:58:00,71.4,48.3,29.84,NW,317,0.0,0.0,44,0.00,CLR,,0.00,WeatherDisplay:10.37,2013-10-23 01:58:00,
2013-10-22 19:03:00,70.6,48.2,29.85,NW,317,0.0,0.0,45,0.00,CLR,,0.00,WeatherDisplay:10.37,2013-10-23 02:03:00,
2013-10-22 19:08:00,69.8,47.5,29.85,NW,317,0.0,0.0,45,0.00,CLR,,0.00,WeatherDisplay:10.37,2013-10-23 02:08:00,
2013-10-22 19:13:00,69.1,48.6,29.85,NW,317,0.0,0.0,48,0.00,CLR,,0.00,WeatherDisplay:10.37,2013-10-23 02:13:00,
2013-10-22 19:18:00,68.4,47.4,29.85,NW,317,0.0,0.0,47,0.00,CLR,,0.00,WeatherDisplay:10.37,2013-10-23 02:18:00,
2013-10-22 19:23:00,67.8,47.9,29.85,NW,317,0.0,0.0,49,0.00,CLR,,0.00,WeatherDisplay:10.37,2013-10-23 02:23:00,
2013-10-22 19:28:00,67.3,48.0,29.85,NW,317,0.0,0.0,50,0.00,CLR,,0.00,WeatherDisplay:10.37,2013-10-23 02:28:00,
2013-10-22 19:33:00,66.9,48.7,29.85,NW,318,0.0,0.0,52,0.00,CLR,,0.00,WeatherDisplay:10.37,2013-10-23 02:33:00,
2013-10-22 19:38:00,66.6,48.9,29.85,NW,317,0.0,0.0,53,0.00,CLR,,0.00,WeatherDisplay:10.37,2013-10-23 02:38:00,
2013-10-22 19:43:00,66.3,48.1,29.85,NW,317,0.0,0.0,52,0.00,CLR,,0.00,WeatherDisplay:10.37,2013-10-23 02:43:00,
2013-10-22 19:48:00,66.1,48.0,29.85,NW,317,0.0,0.0,52,0.00,CLR,,0.00,WeatherDisplay:10.37,2013-10-23 02:48:00,
2013-10-22 19:53:00,66.1,49.0,29.85,NW,317,0.0,0.0,54,0.00,CLR,,0.00,WeatherDisplay:10.37,2013-10-23 02:53:00,
2013-10-22 19:58:00,65.9,48.3,29.85,NW,318,0.0,0.0,53,0.00,CLR,,0.00,WeatherDisplay:10.37,2013-10-23 02:58:00,
2013-10-22 20:03:00,65.6,48.0,29.85,NW,317,0.0,0.0,53,0.00,CLR,,0.00,WeatherDisplay:10.37,2013-10-23 03:03:00,
2013-10-22 20:08:00,65.5,48.9,29.85,NW,317,0.0,0.0,55,0.00,CLR,,0.00,WeatherDisplay:10.37,2013-10-23 03:08:00,
2013-10-22 20:13:00,65.4,48.8,29.86,NW,317,0.0,0.0,55,0.00,CLR,,0.00,WeatherDisplay:10.37,2013-10-23 03:13:00,
2013-10-22 20:18:00,65.0,47.9,29.85,NW,317,0.0,0.0,54,0.00,CLR,,0.00,WeatherDisplay:10.37,2013-10-23 03:18:00,
2013-10-22 20:23:00,64.6,48.1,29.86,NW,317,0.0,0.0,55,0.00,CLR,,0.00,WeatherDisplay:10.37,2013-10-23 03:23:00,
2013-10-22 20:28:00,64.2,47.7,29.86,NW,317,0.0,0.0,55,0.00,CLR,,0.00,WeatherDisplay:10.37,2013-10-23 03:28:00,
2013-10-22 20:33:00,64.0,48.9,29.86,NW,317,0.0,0.0,58,0.00,CLR,,0.00,WeatherDisplay:10.37,2013-10-23 03:33:00,
2013-10-22 20:38:00,63.7,48.6,29.86,NW,318,0.0,0.0,58,0.00,CLR,,0.00,WeatherDisplay:10.37,2013-10-23 03:38:00,
2013-10-22 20:43:00,63.3,48.3,29.86,NW,317,0.0,0.0,58,0.00,CLR,,0.00,WeatherDisplay:10.37,2013-10-23 03:43:00,
2013-10-22 20:48:00,63.0,48.9,29.86,NW,317,0.0,0.0,60,0.00,CLR,,0.00,WeatherDisplay:10.37,2013-10-23 03:48:00,
2013-10-22 20:53:00,62.5,48.0,29.86,NW,317,0.0,0.0,59,0.00,CLR,,0.00,WeatherDisplay:10.37,2013-10-23 03:53:00,
2013-10-22 20:58:00,62.2,48.6,29.86,NW,318,0.0,0.0,61,0.00,CLR,,0.00,WeatherDisplay:10.37,2013-10-23 03:58:00,
2013-10-22 21:01:00,62.0,48.8,29.86,NW,317,0.0,0.0,62,0.00,CLR,,0.00,WeatherDisplay:10.37,2013-10-23 04:01:00,
2013-10-22 21:02:00,62.0,48.8,29.86,NW,318,0.0,0.0,62,0.00,CLR,,0.00,WeatherDisplay:10.37,2013-10-23 04:02:00,
2013-10-22 21:07:00,61.6,48.4,29.87,NW,317,0.0,0.0,62,0.00,CLR,,0.00,WeatherDisplay:10.37,2013-10-23 04:07:00,
2013-10-22 21:12:00,61.3,49.0,29.87,NW,317,0.0,0.0,64,0.00,CLR,,0.00,WeatherDisplay:10.37,2013-10-23 04:12:00,
2013-10-22 21:17:00,60.9,48.2,29.87,NW,318,0.0,0.0,63,0.00,CLR,,0.00,WeatherDisplay:10.37,2013-10-23 04:17:00,
2013-10-22 21:22:00,60.6,47.9,29.87,NW,317,0.0,0.0,63,0.00,CLR,,0.00,WeatherDisplay:10.37,2013-10-23 04:22:00,
2013-10-22 21:27:00,60.3,48.5,29.88,NW,317,0.0,0.0,65,0.00,CLR,,0.00,WeatherDisplay:10.37,2013-10-23 04:27:00,
2013-10-22 21:32:00,60.1,48.3,29.88,NW,318,0.0,0.0,65,0.00,CLR,,0.00,WeatherDisplay:10.37,2013-10-23 04:32:00,
2013-10-22 21:37:00,60.1,47.5,29.88,NW,317,0.0,0.0,63,0.00,CLR,,0.00,WeatherDisplay:10.37,2013-10-23 04:37:00,
2013-10-22 21:42:00,60.0,47.8,29.88,NW,317,0.0,0.0,64,0.00,CLR,,0.00,WeatherDisplay:10.37,2013-10-23 04:42:00,
2013-10-22 21:47:00,60.0,47.4,29.89,NW,318,0.0,0.0,63,0.00,CLR,,0.00,WeatherDisplay:10.37,2013-10-23 04:47:00,
2013-10-22 21:52:00,60.0,47.4,29.89,NW,317,0.0,0.0,63,0.00,CLR,,0.00,WeatherDisplay:10.37,2013-10-23 04:52:00,
2013-10-22 21:57:00,59.9,46.8,29.89,NW,318,0.0,0.0,62,0.00,CLR,,0.00,WeatherDisplay:10.37,2013-10-23 04:57:00,
2013-10-22 22:02:00,60.0,46.5,29.89,NW,317,0.0,0.0,61,0.00,CLR,,0.00,WeatherDisplay:10.37,2013-10-23 05:02:00,
2013-10-22 22:07:00,60.0,45.6,29.89,NW,317,0.0,0.0,59,0.00,CLR,,0.00,WeatherDisplay:10.37,2013-10-23 05:07:00,
2013-10-22 22:12:00,60.2,45.8,29.90,NW,317,0.0,0.0,59,0.00,CLR,,0.00,WeatherDisplay:10.37,2013-10-23 05:12:00,
2013-10-22 22:17:00,60.3,45.5,29.90,NW,318,0.0,0.0,58,0.00,CLR,,0.00,WeatherDisplay:10.37,2013-10-23 05:17:00,
2013-10-22 22:22:00,60.4,45.1,29.90,NW,317,0.0,0.0,57,0.00,CLR,,0.00,WeatherDisplay:10.37,2013-10-23 05:22:00,
2013-10-22 22:27:00,60.3,45.0,29.90,NW,317,0.0,0.0,57,0.00,CLR,,0.00,WeatherDisplay:10.37,2013-10-23 05:27:00,
2013-10-22 22:32:00,60.1,44.8,29.90,NW,317,0.0,0.0,57,0.00,CLR,,0.00,WeatherDisplay:10.37,2013-10-23 05:32:00,
2013-10-22 22:37:00,59.9,45.1,29.90,NW,318,0.0,0.0,58,0.00,CLR,,0.00,WeatherDisplay:10.37,2013-10-23 05:37:00,
2013-10-22 22:42:00,59.7,45.8,29.90,NW,317,0.0,0.0,60,0.00,CLR,,0.00,WeatherDisplay:10.37,2013-10-23 05:42:00,
2013-10-22 22:47:00,59.5,45.6,29.90,NW,317,0.0,0.0,60,0.00,CLR,,0.00,WeatherDisplay:10.37,2013-10-23 05:47:00,
2013-10-22 22:52:00,59.1,45.2,29.90,NW,318,0.0,0.0,60,0.00,CLR,,0.00,WeatherDisplay:10.37,2013-10-23 05:52:00,
2013-10-22 22:57:00,58.8,45.4,29.90,NW,317,0.0,0.0,61,0.00,CLR,,0.00,WeatherDisplay:10.37,2013-10-23 05:57:00,
2013-10-22 23:02:00,58.5,45.9,29.90,NW,317,0.0,0.0,63,0.00,CLR,,0.00,WeatherDisplay:10.37,2013-10-23 06:02:00,
2013-10-22 23:07:00,58.2,44.8,29.90,NW,317,0.0,0.0,61,0.00,CLR,,0.00,WeatherDisplay:10.37,2013-10-23 06:07:00,
2013-10-22 23:12:00,58.1,45.1,29.90,NW,317,0.0,0.0,62,0.00,CLR,,0.00,WeatherDisplay:10.37,2013-10-23 06:12:00,
2013-10-22 23:17:00,58.1,45.6,29.90,NW,317,0.0,0.0,63,0.00,CLR,,0.00,WeatherDisplay:10.37,2013-10-23 06:17:00,
2013-10-22 23:22:00,58.0,46.3,29.90,NW,317,0.0,0.0,65,0.00,CLR,,0.00,WeatherDisplay:10.37,2013-10-23 06:22:00,
2013-10-22 23:27:00,58.0,46.7,29.90,NW,317,0.0,0.0,66,0.00,CLR,,0.00,WeatherDisplay:10.37,2013-10-23 06:27:00,
2013-10-22 23:32:00,57.9,47.4,29.90,NW,318,0.0,0.0,68,0.00,CLR,,0.00,WeatherDisplay:10.37,2013-10-23 06:32:00,
2013-10-22 23:37:00,57.7,47.2,29.90,NW,318,0.0,0.0,68,0.00,CLR,,0.00,WeatherDisplay:10.37,2013-10-23 06:37:00,
2013-10-22 23:42:00,57.5,46.2,29.90,NW,317,0.0,0.0,66,0.00,CLR,,0.00,WeatherDisplay:10.37,2013-10-23 06:42:00,
2013-10-22 23:47:00,57.3,46.0,29.89,NW,317,0.0,0.0,66,0.00,CLR,,0.00,WeatherDisplay:10.37,2013-10-23 06:47:00,
2013-10-22 23:52:00,57.1,46.2,29.89,NW,317,0.0,0.0,67,0.00,CLR,,0.00,WeatherDisplay:10.37,2013-10-23 06:52:00,
2013-10-22 23:57:00,56.9,46.1,29.89,NW,317,0.0,0.0,67,0.00,CLR,,0.00,WeatherDisplay:10.37,2013-10-23 06:57:00,